Velovelo
Português Nederlands 日本語 中文
Español English čeština slovenčina
русский italiano polski norsk
français Deutsch svenska عربي
 
 page précédente
 Envoyer à un ami
 Pour imprimer
 ---> La Morzine Vallée d’Aulps 2008 : Résultats du 143 km

ClassNomPrénomCat.C.c..Temps......
1 ROUX NICOLAS D 1 04:39:06:000
2 GUERAUD PATRICK D 2 04:51:53:000
3 OUGIER NICOLAS D 3 04:54:43:000
4 SANCHEZ EMMANUEL D 4 04:54:50:000
5 DIAZ STEVE C 1 04:55:58:000
6 SMITS SANDER D 5 04:56:35:000
7 SCHILD VALENTIN C 2 04:56:36:000
8 LABY JEREMY C 3 04:57:20:000
9 POLVERONI DAVID C 4 04:58:19:000
10 LALLEMENT THIERRY D 6 05:00:13:000
11 LERAT MICHEL F 1 05:00:51:000
12 BLAIN STEPHANE D 7 05:02:04:000
13 BIXON CHRISTOPHE C 5 05:03:47:000
14 CUENIN FABRICE D 8 05:04:04:000
15 BOUTHER ROMAIN C 6 05:04:25:000
16 BRANDY GAEL D 9 05:05:35:000
17 BERNARD MICHEL E 1 05:08:00:000
18 RONAT PHILIPPE E 2 05:08:48:000
19 RUSCETTA GAEL C 7 05:10:08:000
20 BABYTCHEFF MARTIAL E 3 05:10:09:000
21 GIORGALLA SERGE F 2 05:10:13:000
22 ANTOINE EDDY D 10 05:11:02:000
23 JANDARD NICOLAS D 11 05:11:24:000
24 VAN GANSEN PATRICK E 4 05:11:48:000
25 CHAMPEY LAURENT D 12 05:12:06:000
26 BEARMAN MARC D 13 05:12:08:000
27 LEDIN PHILIPPE D 14 05:12:28:000
28 DOUETTE HERVE D 15 05:14:39:000
29 PETERS JIM D 16 05:16:19:000
30 KAMERZIN STEPHANE D 17 05:16:19:000
31 VILLAIR VINCENT E 5 05:17:51:000
32 GRAHAM MARK D 18 05:17:52:000
33 VAN DEN BROEK MARC F 3 05:18:56:000
34 CRESPY BRUNO E 6 05:20:24:000
35 VAN HELVOORT ARNO D 19 05:21:13:000
36 TRAN HUU DAVID D 20 05:21:16:000
37 BERTRAND JEAN-PAUL F 4 05:21:21:000
38 LODER THIERRY D 21 05:22:05:000
39 FREIHOLZ SYLVAIN D 22 05:22:47:000
40 LOUET CHRISTOPHE D 23 05:23:13:000
41 LAMONTAGNE PIERRE MARC F 5 05:24:52:000
42 STOTZ PASCAL D 24 05:26:25:000
43 TINE CYRIL D 25 05:26:25:000
44 MARANGONE YANN D 26 05:26:31:000
45 PIGNARD CHRISTOPHE D 27 05:27:31:000
46 ALEXANDER EWAN D 28 05:27:42:000
47 DURAND BRICE D 29 05:27:43:000
48 TARDY PATRICE F 6 05:27:52:000
49 MIES CHRIS D 30 05:28:44:000
50 RAFFINI STEPHANE D 31 05:28:50:000
51 CHAFFARDON ANDRE D 32 05:29:16:000
52 DE BERNE LAGARDE SAMUEL C 8 05:29:21:000
53 BESSIERE JEREMIE C 9 05:29:24:000
54 PRESSOIR GERARD F 7 05:31:12:000
55 PORTE OLIVIER E 7 05:31:16:000
56 BORCARD CHRISTOPHE E 8 05:31:46:000
57 FERLAND MARC F 8 05:32:14:000
58 DIBETTA FRANCOIS D 33 05:32:38:000
59 GIRARDOT ERIC E 9 05:32:59:000
60 CLEMENT LAURENT E 10 05:33:24:000
61 MOUGENOT RAPHAEL C 10 05:34:37:000
62 PATTINIER MANUEL E 11 05:35:36:000
63 UITHAM MAX E 12 05:36:17:000
64 LABARRE PASCAL E 13 05:36:20:000
65 PARKINS STEVE D 34 05:36:46:000
66 TAMANINI MARC C 11 05:36:55:000
67 SMITH PHIL D 35 05:37:01:000
68 CHANUT CHRISTOPHE E 14 05:37:43:000
69 BAILLEUX DAVID D 36 05:37:43:000
70 KLAES VINCENT D 37 05:37:59:000
71 MALISOUX LAURENT D 38 05:38:56:000
72 VAN OORSCHOT ERIC F 9 05:40:17:000
73 THOME JOEL E 15 05:40:21:000
74 WILMART BRUNO D 39 05:40:44:000
75 CUISIN ERIC E 16 05:40:47:000
76 MEURER ALEXANDER D 40 05:40:52:000
77 FOURNIER JEROME F 10 05:41:07:000
78 FREIHOLZ JEROME D 41 05:41:50:000
79 DAVID GUILLAUME E 17 05:42:22:000
80 SLACK JEFF E 18 05:42:27:000
81 THOMPSON ANDREW D 42 05:44:06:000
82 KATZ DAVID D 43 05:45:19:000
83 HAMON LAURENT D 44 05:45:45:000
84 DEMARES JEAN GUILLAUME D 45 05:46:44:000
85 UITHAM JAN F 11 05:46:44:000
86 ANGST JEAN MARC E 19 05:47:15:000
87 VITTE JEAN LOUIS E 20 05:47:19:000
88 VAGNERON DAVID D 46 05:48:24:000
89 ORSIER JEAN PAUL E 21 05:48:39:000
90 FOURNIER FRANCK D 47 05:48:42:000
91 GOVERNATORI SERGE F 12 05:48:57:000
92 AUBERT JEROME E 22 05:48:58:000
93 EXCOFFIER CLAUDE F 13 05:49:40:000
94 VINIT ANDRE E 23 05:50:58:000
95 JAGGER STEPHEN E 24 05:51:12:000
96 HOFMAN RON E 25 05:51:49:000
97 DEWAELE MICHEL F 14 05:52:40:000
98 GOETTEL NICK D 48 05:52:49:000
99 BIRLOUEZ JIMMY D 49 05:52:51:000
100 MANOJLOVIC BORISLAV F 15 05:52:57:000
101 KRUST REGIS C 12 05:52:57:000
102 NAEGELY GUY F 16 05:55:02:000
103 COLBEAR JON D 50 05:55:22:000
104 CARTAGENOVA PAOLO D 51 05:57:14:000
105 PEGEOT VINCENT D 52 05:57:22:000
106 THOMASSON CHRISTOPHE D 53 05:57:34:000
107 JOSEPHINE PATRICE D 54 05:59:20:000
108 VEDDERS HILCO D 55 06:00:09:000
109 TOFT BJORN C 13 06:00:23:000
110 PONS NICOLAS D 56 06:03:56:000
111 LE PLOMB DENIS E 26 06:04:27:000
112 PROUDHON ALAIN E 27 06:05:39:000
113 LEDIN GILLES E 28 06:08:12:000
114 MARTINEAU DIDIER E 29 06:08:37:000
115 GUERBET JEAN LUC E 30 06:08:43:000
116 DEFFAYET LAURENT E 31 06:08:49:000
117 SEAN HOBAN E 32 06:08:54:000
118 CAVAZZANA CORINE A 1 06:09:11:000
119 PUTNAM GRAHAM F 17 06:09:23:000
120 BONTAZ RACHEL AB 1 06:10:00:000
121 FERU MICHEL E 33 06:10:48:000
122 GEMEN ROB D 57 06:10:49:000
123 LETOUBLON OLIVIER E 34 06:15:08:000
124 FORINI FREDERIC C 14 06:15:15:000
125 NABET EMMANUEL E 35 06:16:23:000
126 LALOUX GUY G 1 06:17:24:000
127 KIEFFER GERARD E 36 06:18:31:000
128 ARENS JEAN CLAUDE F 18 06:19:23:000
129 HILL SIMON D 58 06:20:28:000
130 BURET MICHEL F 19 06:20:36:000
131 GUIGNET PASCAL E 37 06:20:38:000
132 KILMARTIN JANE AB 2 06:21:40:000
133 BIJLEVELD JEROEN E 38 06:21:51:000
134 DICKHOUT JAN F 20 06:22:35:000
135 RUSSIAS JACQUES G 2 06:22:37:000
136 PELLISSON OLIVIER D 59 06:25:00:000
137 PATRICK MATHEY F 21 06:25:01:000
138 PERIES SERGE F 22 06:25:02:000
139 CORONADO JEAN PIERRE F 23 06:26:06:000
140 RICHARD JEAN LOUIS F 24 06:26:26:000
141 BARTOL WIM E 39 06:26:36:000
142 KORVING SANDER D 60 06:27:16:000
143 BOULADOU ERIC D 61 06:27:40:000
144 BENEDETTI PIERRE FRANCOIS E 40 06:27:42:000
145 PERRIER PHILIPPE E 41 06:28:04:000
146 DERKS RODERICK D 62 06:28:34:000
147 STEINER REMY F 25 06:28:56:000
148 GALLO MONIQUE AB 3 06:29:11:000
149 FAUBEL GUY NOEL F 26 06:29:12:000
150 HIGH DARRELL E 42 06:29:37:000
151 BAZLEY RUSSELL E 43 06:32:22:000
152 DE VLEESCHOUWER DANNY F 27 06:32:28:000
153 MOULIN NORBERT F 28 06:32:42:000
154 CHARRIERE STEPHANE E 44 06:33:27:000
155 PERSONNAZ THIERRY E 45 06:34:23:000
156 RIBOULET DANIEL E 46 06:35:40:000
157 VANSPRINGEL JOSEPH E 47 06:38:16:000
158 WELLS NICK D 63 06:39:13:000
159 ADOBATI CHRISTIAN F 29 06:39:23:000
160 RULLIER VINCENT F 30 06:40:32:000
161 JAMES DAVID E 48 06:40:42:000
162 COUDERT SERGE F 31 06:42:30:000
163 PENIN FRANCK D 64 06:42:45:000
164 BEVAN DANIEL D 65 06:43:28:000
165 LEMPEREUR FREDDY E 49 06:44:42:000
166 BERAUD VIARD CYRIL D 66 06:44:47:000
167 GRAY COLIN G 3 06:46:18:000
168 NIJHUIS BERT D 67 06:46:49:000
169 FINDLAY DAVID E 50 06:47:12:000
170 JAQUES IAN E 51 06:47:12:000
171 ZOPPARDO PATRICK E 52 06:47:59:000
172 SCHAFFER DANIEL E 53 06:50:56:000
173 FORD MICHAEL E 54 06:50:56:000
174 BOURDENET PATRICK E 55 06:51:01:000
175 HOULBERT CEDRIC D 68 06:51:54:000
176 JENOT EMILE G 4 06:51:55:000
177 PRIESTLEY PETER F 32 06:52:09:000
178 CHANTOISEAU PHILIPPE F 33 06:56:08:000
179 HODGETTS NICHOLAS E 56 06:56:08:000
180 ESQUENET NICOLAS D 69 06:56:17:000
181 SPALDING ANDREW E 57 06:56:24:000
182 MANDIGON DAMIEN D 70 06:56:36:000
183 PALERMO GIOVANNI D 71 06:56:36:000
184 BONNETIER JEAN MARIE F 34 07:01:45:000
185 SAVAJOLS PHILIPPE E 58 07:02:08:000
186 BUSH MARTIN D 72 07:03:58:000
187 JOLY NOEL F 35 07:05:50:000
188 POTS DAVID E 59 07:05:54:000
189 HOBAN KEVIN D 73 07:06:51:000
190 GROSSET ALAIN G 5 07:10:06:000
191 VAN OPSTAL INEKE AB 4 07:10:12:000
192 BAVEREL MARC E 60 07:10:17:000
193 LIEBEAUX PASCAL E 61 07:10:30:000
194 NEDELEC PATRICK F 36 07:13:53:000
195 BOUYHRIR ROCHDI D 74 07:14:44:000
196 GEORGET ERIC C 15 07:14:50:000
197 JOURNEAUX CHARLES E 62 07:17:43:000
198 EICHENBERGER OLIVIER E 63 07:19:13:000
199 DAVIES WILLIAM E 64 07:20:47:000
200 JACOBS RUUD D 75 07:21:03:000
201 MOURIN PASCAL E 65 07:21:43:000
202 PHILIPONA BRUNO E 66 07:22:02:000
203 EPINAT JACQUES E 67 07:22:04:000
204 CASTELLE JEROME D 76 07:23:44:000
205 JAMES SARAH AB 5 07:25:02:000
206 ANDERSON DAVID E 68 07:25:23:000
207 VERCAMMEN BENNY E 69 07:25:33:000
208 THORNTON PHIUP E 70 07:26:07:000
209 MCCULLOCH STEVEN E 71 07:26:08:000
210 HOOIJSCHUUR ERIC E 72 07:26:12:000
211 FLANT PIERRE G 6 07:28:49:000
212 PRUDHON PATRICK F 37 07:29:40:000
213 RIJKSE HARRY F 38 07:32:50:000
214 GRAF JURGEN D 77 07:44:43:000
215 SCHEIDEGGER URS E 73 07:46:19:000
216 SCHEIDEGGER GOTTHELF G 7 07:46:59:000
217 GOLDRING NICHOLAS D 78 07:47:23:000
218 DECHAVANNE YVES F 39 07:49:15:000
219 CATEL CHRISTIAN G 8 07:50:26:000
220 JACOBS WIL G 9 07:54:53:000
221 DERNIERE MINUTE J 1 07:56:13:000
222 SEINEN MEINE E 74 08:05:47:000
223 DUCREUX PATRICE F 40 08:06:23:000
224 BLOCH ROLF E 75 08:08:49:000
225 GROSSET ANNIE B 1 08:10:16:000
226 RUTTEN THEO D 79 08:12:05:000
227 BARD JOEL E 76 08:12:31:000
228 LAVERGNE MARC E 77 08:17:09:000
229 PICARD GUILLAUME C 16 08:17:43:000
230 OTTOSEN BRIAN TURNER D 80 08:26:10:000
231 FERCHAUD LIONEL C 17 08:26:48:000
232 MICHEL J.YVES F 41 08:32:19:000
233 VAN DER BLOM ARJAN D 81 08:32:30:000
234 VAN DER BLOM ERIK D 82 08:32:37:000
235 GALLAY FRANCOIS F 42 08:32:45:000
236 DUMONT PHILIPPE F 43 08:34:23:000
237 IRVING CHRIS E 78 08:35:41:000
238 VAN DE AARNOUD BURGT D 83 08:35:46:000
239 BAAIJ MAARTEN D 84 08:37:45:000
240 KUELSHEIMER JANE AB 6 08:37:54:000
241 MEGENS JACO C 18 08:38:16:000
242 BAUDET GREGORY D 85 08:38:29:000
243 WESTERBEEK JAN ALBERT D 86 08:43:06:000
244 PUT ERWIN D 87 08:43:07:000
245 VERWEIJ ARNEL D 88 08:43:33:000
246 HITZERD PAUL D 89 08:44:12:000

Haut 









Haut  
 Espace privé   Droits d’auteur-Copyright: Cliquez ici pour lire !